SKYSAT-C2

Last updated on Wed Sep 17 2025 00:02:31 GMT+0000 (Coordinated Universal Time)

1 41773U 16058D 25259.57426876 .00010682 00000+0 32120-3 0 9997 2 41773 97.0489 287.8996 0002582 355.8618 4.2604 15.34553152502987
UTC large
Height (km)
Speed (km/s)
/
Latitude / Longitude
Inclination (degrees)
Orbital Period (minutes)
Azimuth
Elevation
Range (km)
Doppler Factor

Next 0 passes for location: London (51.5072 / 0.1276)

Sorry there are no passes over London.